Location: Warszawa
(52.2500°N, 21.0000°E)
Time: 11:52:51
(UTC+01:00)

Transit 2A Rocket - All Passes

Search period start: 31 January 2023 00:00
Search period end: 10 February 2023 00:00
Orbit: 585 x 915 km, 66.7° (Epoch: 30 January)

Date Brightness Start Highest point End Pass type
(mag) Time Alt. Az. Time Alt. Az. Time Alt. Az.
31 Jan - 00:12:59 10° SSW 00:17:54 59° ESE 00:23:21 10° NE night (unlit)
31 Jan - 01:55:57 10° WSW 02:00:48 38° NW 02:06:06 10° NNE visible
31 Jan - 03:40:58 10° WNW 03:44:59 20° N 03:49:15 10° NE visible
31 Jan - 05:25:10 10° NW 05:29:35 22° NNE 05:34:12 10° ENE visible
31 Jan - 07:07:55 10° NW 07:13:35 47° NE 07:19:27 10° ESE daylight
31 Jan - 08:50:35 10° NW 08:56:22 52° WSW 09:02:16 10° SSE daylight
31 Jan - 10:36:12 10° W 10:37:46 11° W 10:39:22 10° WSW daylight
31 Jan - 23:30:26 10° S 23:35:01 38° ESE 23:40:04 10° NE night (unlit)
01 Feb - 01:12:28 10° WSW 01:17:29 51° NW 01:23:01 10° NE visible
01 Feb - 02:57:09 10° WNW 03:01:24 22° NNW 03:05:53 10° NE visible
01 Feb - 04:41:50 10° NW 04:45:59 20° N 04:50:19 10° NE visible
01 Feb - 06:24:51 10° NNW 06:30:14 36° NNE 06:35:49 10° E visible
01 Feb - 08:07:25 10° NW 08:13:23 76° SW 08:19:29 10° SSE daylight
01 Feb - 09:51:15 10° WNW 09:55:11 18° WSW 09:59:08 10° SSW daylight
01 Feb - 22:48:18 10° SSE 22:52:17 24° ESE 22:56:34 10° ENE night (unlit)
02 Feb - 00:29:11 10° SW 00:34:17 73° NW 00:39:57 10° NE visible
02 Feb - 02:13:20 10° W 02:17:50 26° NNW 02:22:40 10° NNE visible
02 Feb - 03:58:21 10° NW 04:02:21 19° N 04:06:31 10° NE visible
02 Feb - 05:41:47 10° NNW 05:46:48 29° NNE 05:52:01 10° E visible
02 Feb - 07:24:19 10° NW 07:30:17 77° NE 07:36:26 10° SE daylight
02 Feb - 09:07:30 10° NW 09:12:28 28° WSW 09:17:31 10° SSW daylight
02 Feb - 22:06:52 10° SE 22:09:39 15° ESE 22:12:35 10° ENE night (unlit)
02 Feb - 23:46:09 10° SSW 23:51:12 76° SE 23:56:49 10° NE night (unlit)
03 Feb - 01:29:37 10° W 01:34:22 33° NNW 01:39:32 10° NNE visible
03 Feb - 03:14:42 10° NW 03:18:42 20° N 03:22:54 10° NE visible
03 Feb - 04:58:37 10° NNW 05:03:17 24° NNE 05:08:07 10° ENE visible
03 Feb - 06:41:15 10° NW 06:47:05 56° NE 06:53:07 10° ESE daylight
03 Feb - 08:24:05 10° NW 08:29:40 41° WSW 08:35:20 10° S daylight
03 Feb - 23:03:24 10° SSW 23:08:15 49° ESE 23:13:36 10° NE night (unlit)
04 Feb - 00:46:01 10° WSW 00:50:59 43° NW 00:56:26 10° NE visible
04 Feb - 02:30:55 10° WNW 02:35:04 21° NNW 02:39:27 10° NE visible
04 Feb - 04:15:21 10° NW 04:19:41 21° NNE 04:24:12 10° ENE visible
04 Feb - 05:58:12 10° NNW 06:03:48 42° NE 06:09:34 10° ESE visible
04 Feb - 07:40:49 10° NW 07:46:44 61° WSW 07:52:45 10° SSE daylight
04 Feb - 09:25:24 10° WNW 09:28:18 14° WSW 09:31:11 10° SW daylight
04 Feb - 22:21:00 10° S 22:25:26 32° ESE 22:30:15 10° NE night (unlit)
05 Feb - 00:02:36 10° SW 00:07:43 59° NW 00:13:21 10° NE visible
05 Feb - 01:47:06 10° WNW 01:51:29 24° NNW 01:56:09 10° NNE visible
05 Feb - 03:31:57 10° NW 03:36:03 20° N 03:40:20 10° NE visible
05 Feb - 05:15:08 10° NNW 05:20:24 33° NNE 05:25:51 10° E visible
05 Feb - 06:57:41 10° NW 07:03:42 87° SW 07:09:50 10° SE daylight
05 Feb - 08:41:12 10° WNW 08:45:39 22° WSW 08:50:08 10° SSW daylight
05 Feb - 21:39:05 10° SSE 21:42:43 20° ESE 21:46:37 10° ENE night (unlit)
05 Feb - 23:19:24 10° SW 23:24:33 85° NW 23:30:15 10° NE night (unlit)
06 Feb - 01:03:19 10° W 01:07:57 29° NNW 01:12:58 10° NNE visible
06 Feb - 02:48:23 10° NW 02:52:24 19° N 02:56:36 10° NE visible
06 Feb - 04:32:01 10° NNW 04:36:56 27° NNE 04:42:01 10° E visible
06 Feb - 06:14:36 10° NW 06:20:34 68° NE 06:26:40 10° SE visible
06 Feb - 07:57:37 10° NW 08:02:54 33° WSW 08:08:14 10° S daylight
06 Feb - 20:58:10 10° SE 21:00:09 12° E 21:02:11 10° ENE night (unlit)
06 Feb - 22:36:29 10° SSW 22:41:31 64° ESE 22:47:06 10° NE night (unlit)
07 Feb - 00:19:37 10° W 00:24:31 36° NNW 00:29:50 10° NNE visible
07 Feb - 02:04:40 10° NW 02:08:45 20° N 02:13:03 10° NE visible
07 Feb - 03:48:49 10° NW 03:53:22 23° NNE 03:58:05 10° ENE visible
07 Feb - 05:31:32 10° NW 05:37:19 49° NE 05:43:15 10° ESE visible
07 Feb - 07:14:16 10° NW 07:20:02 49° WSW 07:25:52 10° S daylight
07 Feb - 21:53:52 10° S 21:58:36 41° ESE 22:03:50 10° NE night (unlit)
07 Feb - 23:36:06 10° WSW 23:41:10 49° NW 23:46:45 10° NE night (unlit)
08 Feb - 01:20:51 10° WNW 01:25:08 22° NNW 01:29:40 10° NE visible
08 Feb - 03:05:29 10° NW 03:09:45 21° N 03:14:11 10° ENE visible
08 Feb - 04:48:29 10° NNW 04:53:58 38° NE 04:59:38 10° ESE visible
08 Feb - 06:31:04 10° NW 06:37:04 72° SW 06:43:09 10° SSE visible
08 Feb - 08:15:06 10° WNW 08:18:47 17° WSW 08:22:29 10° SW daylight
08 Feb - 21:11:38 10° SSE 21:15:50 27° ESE 21:20:23 10° NE night (unlit)
08 Feb - 22:52:45 10° SW 22:57:56 69° NW 23:03:40 10° NE night (unlit)
09 Feb - 00:37:01 10° W 00:41:34 26° NNW 00:46:24 10° NNE visible
09 Feb - 02:22:00 10° NW 02:26:06 20° N 02:30:22 10° NE visible
09 Feb - 04:05:23 10° NNW 04:10:32 30° NNE 04:15:52 10° E visible
09 Feb - 05:47:57 10° NW 05:53:59 82° NE 06:00:08 10° SE visible
09 Feb - 07:31:13 10° WNW 07:36:06 26° WSW 07:40:59 10° SSW daylight
09 Feb - 20:30:00 10° SE 20:33:11 17° ESE 20:36:33 10° ENE night (unlit)
09 Feb - 22:09:40 10° SSW 22:14:49 82° SE 22:20:32 10° NE night (unlit)
